Simultaneous Nadir Overpasses (SNOs) Predictions

Prediction of SNOs between GOES-16 and METOP-B Satellite Orbit:

Table of predicted SNOs for the next 14.0 days since TLE Epoch: 6/1/2018
Index Date Time (GOES-16) GOES-16 Lat,Lon METOP-B Lat,Lon Distance(km) Time Diff (sec)
1 06/02/2018 14:30:35 0.00, -75.21 0.10, -75.70 55.51 80
2 06/05/2018 02:31:34 -0.01, -75.20 -0.02, -75.30 10.79 80
3 06/07/2018 14:29:45 0.01, -75.25 -0.08, -74.87 43.34 80
4 06/09/2018 02:48:44 -0.01, -75.24 -0.92, -79.47 480.57 80
5 06/10/2018 02:25:24 -0.01, -75.25 0.17, -74.47 89.83 80
6 06/11/2018 14:44:15 0.01, -75.29 0.82, -79.04 425.84 80
7 06/12/2018 14:26:14 0.01, -75.31 -0.27, -74.04 144.73 80
8 06/14/2018 02:45:14 -0.01, -75.31 -0.72, -78.64 378.75 80
9 06/15/2018 02:21:53 -0.00, -75.32 0.37, -73.64 191.74 80




NCC Satellite Simultaneous Nadir Overpasses (SNOs) Prediction Service
